Weather History for Whiting Fld NAS, FL

Change the Weather History Date:

Wednesday, April 24, 2013

  Actual Average Record
Temperature  
Mean Temperature 66 °F -  
Max Temperature 79 °F 76 °F 87 °F (2011)
Min Temperature 55 °F 57 °F 45 °F (2012)
Cooling Degree Days 2    
Growing Degree Days 16 (Base 50)    
Moisture  
Dew Point 60 °F    
Average Humidity 82    
Maximum Humidity 94    
Minimum Humidity 56    
Precipitation  
Precipitation 0.01 in - - ()
Sea Level Pressure  
Sea Level Pressure 30.07 in    
Wind  
Wind Speed 3 mph (South)    
Max Wind Speed 15 mph    
Max Gust Speed -    
Visibility 4 miles    
Events Fog , Rain    
Averages and records for this station are not official NWS values.
T = Trace of Precipitation, MM = Missing Value Source: NWS Daily Summary

Daily Weather History Graph

Daily Weather History Graph

Search for Another Location

Airport:

Trip Planner

Search our weather history database for the weather conditions in past years. The results will help you decide how hot, cold, wet, or windy it might be!

Date:

Astronomy

Apr. 24, 2013 Rise Set
Actual Time 6:10 AM CDT 7:22 PM CDT
Civil Twilight 5:45 AM CDT 7:47 PM CDT
Nautical Twilight 5:15 AM CDT 8:17 PM CDT
Astronomical Twilight 4:44 AM CDT 8:48 PM CDT
Moon 6:27 PM CDT (4/24) 5:09 AM CDT (4/24)
Length of Visible Light 14h 01m
Length of Day
13h 11m
Waxing Gibbous, 98% of the Moon is Illuminated
Apr 24
Waxing Gibbous
Apr 25
Full
May 2
Last Quarter
May 9
New
May 17
First Quarter

Hourly Weather History & Observations

Time (CDT) Temp. Dew Point Humidity Pressure Visibility Wind Dir Wind Speed Gust Speed Precip Events Conditions
12:56 AM 57.9 °F 54.0 °F 87% 30.04 in 2.0 mi Calm Calm - N/A   Scattered Clouds
1:03 AM 57.2 °F 55.4 °F 94% 30.08 in 0.8 mi East 3.5 mph - N/A   Mist
1:21 AM 57.2 °F 55.4 °F 94% 30.07 in 0.2 mi ESE 3.5 mph - N/A Fog Fog
1:29 AM 57.2 °F 53.6 °F 88% 30.06 in 0.2 mi ESE 4.6 mph - N/A Fog Fog
1:56 AM 57.9 °F 55.0 °F 90% 30.01 in 0.2 mi ESE 3.5 mph - N/A Fog Fog
2:56 AM 55.9 °F 53.1 °F 90% 30.01 in 0.2 mi Calm Calm - N/A Fog Fog
3:05 AM 55.4 °F 53.6 °F 94% 30.05 in 0.5 mi Calm Calm - N/A Fog Fog
3:13 AM 57.2 °F 53.6 °F 88% 30.05 in 0.2 mi Calm Calm - N/A Fog Fog
3:56 AM 57.9 °F 55.0 °F 90% 30.03 in 0.2 mi Calm Calm - 0.00 in Fog Fog
4:56 AM 59.0 °F 55.9 °F 90% 30.04 in 0.2 mi Calm Calm - N/A Fog Fog
5:56 AM 57.9 °F 55.9 °F 93% 30.05 in 0.2 mi East 4.6 mph - N/A Fog Fog
6:56 AM 59.0 °F 55.9 °F 90% 30.06 in 0.2 mi Calm Calm - N/A Fog Fog
7:56 AM 63.0 °F 61.0 °F 93% 30.07 in 0.5 mi Calm Calm - N/A Fog Fog
8:17 AM 66.2 °F 62.6 °F 88% 30.11 in 4.0 mi Calm Calm - N/A   Mostly Cloudy
8:56 AM 71.1 °F 64.9 °F 81% 30.08 in 10.0 mi South 6.9 mph - N/A   Mostly Cloudy
9:56 AM 75.0 °F 62.1 °F 64% 30.09 in 10.0 mi South 5.8 mph - N/A   Mostly Cloudy
10:56 AM 77.0 °F 61.0 °F 58% 30.09 in 10.0 mi South 12.7 mph - N/A   Mostly Cloudy
11:56 AM 78.1 °F 61.0 °F 56% 30.07 in 10.0 mi South 15.0 mph - N/A   Mostly Cloudy
12:56 PM 75.0 °F 60.1 °F 60% 30.09 in 10.0 mi SSW 9.2 mph - N/A   Overcast
1:29 PM 73.4 °F 62.6 °F 69% 30.14 in 10.0 mi SW 10.4 mph - 0.00 in Rain Light Rain
1:41 PM 73.4 °F 62.6 °F 69% 30.14 in 10.0 mi SW 10.4 mph - 0.00 in   Overcast
1:56 PM 73.9 °F 62.1 °F 66% 30.09 in 10.0 mi South 10.4 mph - 0.00 in   Overcast
2:26 PM 73.4 °F 62.6 °F 69% 30.12 in 10.0 mi South 10.4 mph - 0.00 in Rain Light Rain
2:56 PM 72.0 °F 64.0 °F 76% 30.06 in 9.0 mi South 9.2 mph - 0.00 in Rain Light Rain
3:20 PM 73.4 °F 64.4 °F 73% 30.09 in 10.0 mi South 8.1 mph - 0.00 in   Mostly Cloudy
3:56 PM 73.9 °F 64.0 °F 71% 30.05 in 10.0 mi SSW 6.9 mph - 0.00 in   Mostly Cloudy
4:56 PM 72.0 °F 64.9 °F 78% 30.09 in 5.0 mi SW 5.8 mph - 0.00 in Rain Light Rain
5:56 PM 70.0 °F 66.0 °F 87% 30.04 in 8.0 mi SSE 11.5 mph - 0.01 in   Mostly Cloudy
6:56 PM 71.1 °F 64.9 °F 81% 30.05 in 9.0 mi SSW 3.5 mph - N/A   Mostly Cloudy
7:45 PM 68.0 °F 64.4 °F 88% 30.10 in 5.0 mi Calm Calm - N/A Fog Shallow Fog
7:56 PM 66.0 °F 63.0 °F 90% 30.06 in 5.0 mi Calm Calm - N/A Fog Shallow Fog
8:18 PM 64.4 °F 60.8 °F 88% 30.11 in 2.0 mi Calm Calm - N/A Fog Patches of Fog
8:56 PM 63.0 °F 60.1 °F 90% 30.08 in 0.2 mi Calm Calm - N/A Fog Fog
9:56 PM 62.1 °F 59.0 °F 90% 30.10 in 0.2 mi Calm Calm - N/A Fog Fog
10:56 PM 61.0 °F 59.0 °F 93% 30.11 in 0.2 mi Calm Calm - N/A Fog Fog
11:56 PM 62.1 °F 57.9 °F 86% 30.11 in 0.2 mi Calm Calm - N/A Fog Fog